When you browse on this site, cookies collect data to enhance your experience and personalize the content and advertising you see.
Visit our Privacy Policy to learn more. By continuing to use the site, you agree to this use of cookies and data.
  • In France
  • List of Countries
  • For 7 days
  • Water Temperature
  • Satellite Maps
  • Weather Map
  • Weather Widgets
  • user-avatar
    Login

    Hourly Weather San Luis

    Today, 19 January, Saturday

    Time Temperature Precipitation Wind Pressure Humidity
    00:00 +19°C° 0 mm 4 mps 702 mmHg 54%
    01:00 +19°C° 0 mm 4 mps 702 mmHg 54%
    02:00 +19°C° 0 mm 5 mps 702 mmHg 55%
    03:00 +17°C° 0 mm 5 mps 702 mmHg 56%
    04:00 +17°C° 0 mm 6 mps 702 mmHg 58%
    05:00 +17°C° 0 mm 6 mps 702 mmHg 60%
    06:00 +18°C° 0 mm 7 mps 702 mmHg 55%
    07:00 +21°C° 0 mm 7 mps 702 mmHg 50%
    08:00 +22°C° 0 mm 8 mps 703 mmHg 45%
    09:00 +24°C° 0 mm 7 mps 702 mmHg 40%
    10:00 +27°C° 0 mm 7 mps 702 mmHg 36%
    11:00 +28°C° 0 mm 6 mps 702 mmHg 31%
    12:00 +29°C° 0 mm 6 mps 702 mmHg 29%
    13:00 +30°C° 0 mm 6 mps 701 mmHg 27%
    14:00 +32°C° 0 mm 5 mps 701 mmHg 24%
    15:00 +33°C° 0 mm 5 mps 700 mmHg 24%
    16:00 +33°C° 0 mm 5 mps 700 mmHg 24%
    17:00 +33°C° 0 mm 5 mps 699 mmHg 23%
    18:00 +30°C° 0 mm 5 mps 699 mmHg 27%
    19:00 +28°C° 0 mm 5 mps 699 mmHg 31%
    20:00 +25°C° 0 mm 5 mps 698 mmHg 34%
    21:00 +24°C° 0 mm 6 mps 699 mmHg 37%
    22:00 +23°C° 0 mm 7 mps 699 mmHg 40%
    23:00 +22°C° 0 mm 9 mps 699 mmHg 43%

    Tomorrow, 20 January, Sunday

    Time Temperature Precipitation Wind Pressure Humidity
    00:00 +22°C° 0 mm 9 mps 699 mmHg 43%
    01:00 +21°C° 0 mm 10 mps 698 mmHg 44%
    02:00 +21°C° 0 mm 10 mps 698 mmHg 45%
    03:00 +19°C° 0 mm 10 mps 698 mmHg 47%
    04:00 +19°C° 0 mm 10 mps 698 mmHg 50%
    05:00 +19°C° 0 mm 9 mps 697 mmHg 52%
    06:00 +21°C° 0 mm 9 mps 698 mmHg 48%
    07:00 +22°C° 0 mm 9 mps 698 mmHg 44%
    08:00 +24°C° 0 mm 9 mps 698 mmHg 40%
    09:00 +27°C° 0 mm 9 mps 698 mmHg 34%
    10:00 +29°C° 0 mm 8 mps 698 mmHg 29%
    11:00 +32°C° 0 mm 7 mps 698 mmHg 24%
    12:00 +33°C° 0 mm 7 mps 698 mmHg 22%
    13:00 +34°C° 0 mm 6 mps 697 mmHg 20%
    14:00 +36°C° 0 mm 6 mps 697 mmHg 18%
    15:00 +35°C° 0 mm 6 mps 696 mmHg 19%
    16:00 +35°C° 0 mm 6 mps 695 mmHg 20%
    17:00 +35°C° 0 mm 6 mps 695 mmHg 21%
    18:00 +33°C° 0 mm 6 mps 694 mmHg 27%
    19:00 +30°C° 0 mm 5 mps 694 mmHg 34%
    20:00 +28°C° 0 mm 5 mps 694 mmHg 40%
    21:00 +27°C° 0 mm 6 mps 695 mmHg 41%
    22:00 +26°C° 0 mm 8 mps 695 mmHg 43%
    23:00 +24°C° 0 mm 9 mps 696 mmHg 45%

    Day after tomorrow, 21 January, Monday

    Time Temperature Precipitation Wind Pressure Humidity
    00:00 +24°C° 0 mm 9 mps 695 mmHg 47%
    01:00 +23°C° 0 mm 8 mps 695 mmHg 49%
    02:00 +23°C° 0 mm 8 mps 695 mmHg 51%
    03:00 +22°C° 0 mm 7 mps 695 mmHg 53%
    04:00 +22°C° 0 mm 6 mps 696 mmHg 56%
    05:00 +21°C° 0 mm 5 mps 696 mmHg 58%
    06:00 +23°C° 0 mm 4 mps 697 mmHg 53%
    07:00 +26°C° 0 mm 4 mps 698 mmHg 47%
    08:00 +28°C° 0 mm 3 mps 698 mmHg 41%
    09:00 +29°C° 0 mm 3 mps 699 mmHg 37%
    10:00 +31°C° 0 mm 3 mps 699 mmHg 34%
    11:00 +33°C° 0 mm 3 mps 699 mmHg 30%
    12:00 +34°C° 0 mm 3 mps 699 mmHg 28%
    13:00 +35°C° 0 mm 3 mps 698 mmHg 26%
    14:00 +36°C° 0 mm 3 mps 698 mmHg 24%
    15:00 +36°C° 0 mm 2 mps 697 mmHg 23%
    16:00 +37°C° 0 mm 2 mps 696 mmHg 23%
    17:00 +37°C° 0 mm 2 mps 696 mmHg 22%
    18:00 +35°C° 0 mm 3 mps 695 mmHg 26%
    19:00 +33°C° 0 mm 3 mps 695 mmHg 30%
    20:00 +30°C° 0 mm 3 mps 695 mmHg 34%
    21:00 +29°C° 0 mm 4 mps 695 mmHg 38%
    22:00 +28°C° 0 mm 4 mps 695 mmHg 41%
    23:00 +27°C° 0 mm 5 mps 695 mmHg 45%

    22 January, Tuesday

    Time Temperature Precipitation Wind Pressure Humidity
    00:00 +27°C° 0 mm 6 mps 695 mmHg 48%
    01:00 +27°C° 0 mm 7 mps 695 mmHg 52%
    02:00 +27°C° 0 mm 8 mps 694 mmHg 55%
    03:00 +26°C° 0 mm 8 mps 694 mmHg 56%
    04:00 +26°C° 0 mm 8 mps 694 mmHg 58%
    05:00 +26°C° 0 mm 7 mps 694 mmHg 59%
    06:00 +27°C° 0 mm 7 mps 694 mmHg 56%
    07:00 +28°C° 0 mm 8 mps 695 mmHg 52%
    08:00 +31°C° 0 mm 8 mps 695 mmHg 48%
    09:00 +32°C° 0 mm 7 mps 696 mmHg 43%
    10:00 +34°C° 0 mm 5 mps 696 mmHg 38%
    11:00 +36°C° 0 mm 4 mps 696 mmHg 33%
    12:00 +37°C° 0 mm 3 mps 695 mmHg 31%
    13:00 +38°C° 0 mm 2 mps 695 mmHg 29%
    14:00 +37°C° 0 mm 1 mps 695 mmHg 27%
    15:00 +38°C° 0 mm 2 mps 694 mmHg 26%
    16:00 +39°C° 0 mm 3 mps 694 mmHg 26%
    17:00 +40°C° 0 mm 4 mps 694 mmHg 25%
    18:00 +37°C° 0 mm 4 mps 694 mmHg 29%
    19:00 +35°C° 0 mm 4 mps 694 mmHg 33%
    20:00 +33°C° 0 mm 4 mps 694 mmHg 37%
    21:00 +32°C° 0.1 mm 4 mps 695 mmHg 42%
    22:00 +30°C° 0.1 mm 4 mps 695 mmHg 47%
    23:00 +28°C° 0.1 mm 4 mps 696 mmHg 53%

    23 January, Wednesday

    Time Temperature Precipitation Wind Pressure Humidity
    00:00 +28°C° 0.1 mm 4 mps 696 mmHg 56%
    01:00 +27°C° 0.1 mm 4 mps 696 mmHg 60%
    02:00 +26°C° 0.1 mm 4 mps 696 mmHg 64%
    03:00 +26°C° 0.5 mm 4 mps 696 mmHg 66%
    04:00 +26°C° 0.5 mm 4 mps 696 mmHg 69%
    05:00 +25°C° 0.5 mm 3 mps 696 mmHg 71%
    06:00 +27°C° 0.2 mm 3 mps 697 mmHg 66%
    07:00 +28°C° 0.2 mm 2 mps 697 mmHg 61%
    08:00 +30°C° 0.2 mm 2 mps 698 mmHg 57%
    09:00 +31°C° 0.1 mm 2 mps 698 mmHg 51%
    10:00 +34°C° 0.1 mm 2 mps 698 mmHg 46%
    11:00 +35°C° 0.1 mm 2 mps 698 mmHg 41%
    12:00 +36°C° 0 mm 3 mps 698 mmHg 40%
    13:00 +36°C° 0 mm 3 mps 697 mmHg 39%
    14:00 +37°C° 0 mm 3 mps 697 mmHg 38%
    15:00 +37°C° 0 mm 4 mps 696 mmHg 38%
    16:00 +37°C° 0 mm 5 mps 696 mmHg 39%
    17:00 +38°C° 0 mm 6 mps 695 mmHg 40%
    18:00 +35°C° 0 mm 5 mps 695 mmHg 42%
    19:00 +34°C° 0 mm 4 mps 695 mmHg 45%
    20:00 +33°C° 0 mm 3 mps 695 mmHg 47%
    21:00 +31°C° 0 mm 3 mps 695 mmHg 49%
    22:00 +32°C° 0 mm 4 mps 695 mmHg 50%
    23:00 +30°C° 0 mm 4 mps 695 mmHg 52%

    24 January, Thursday

    Time Temperature Precipitation Wind Pressure Humidity
    00:00 +30°C° 0.2 mm 4 mps 694 mmHg 54%
    01:00 +29°C° 0.2 mm 5 mps 694 mmHg 56%
    02:00 +29°C° 0.2 mm 5 mps 694 mmHg 58%
    03:00 +29°C° 0 mm 6 mps 693 mmHg 59%
    04:00 +29°C° 0 mm 7 mps 693 mmHg 59%
    05:00 +29°C° 0 mm 8 mps 693 mmHg 60%
    06:00 +31°C° 0 mm 8 mps 693 mmHg 57%
    07:00 +32°C° 0 mm 9 mps 693 mmHg 54%
    08:00 +34°C° 0 mm 10 mps 694 mmHg 50%
    09:00 +36°C° 0 mm 10 mps 694 mmHg 46%
    10:00 +38°C° 0 mm 10 mps 694 mmHg 42%
    11:00 +39°C° 0 mm 10 mps 694 mmHg 38%
    12:00 +40°C° 0 mm 10 mps 693 mmHg 36%
    13:00 +42°C° 0 mm 10 mps 693 mmHg 33%
    14:00 +43°C° 0 mm 10 mps 692 mmHg 31%
    15:00 +43°C° 0 mm 9 mps 692 mmHg 30%
    16:00 +43°C° 0 mm 8 mps 691 mmHg 30%
    17:00 +43°C° 0 mm 8 mps 691 mmHg 29%
    18:00 +40°C° 0.1 mm 7 mps 691 mmHg 33%
    19:00 +37°C° 0.1 mm 5 mps 691 mmHg 37%
    20:00 +35°C° 0.1 mm 4 mps 691 mmHg 41%
    21:00 +35°C° 0 mm 6 mps 692 mmHg 41%
    22:00 +35°C° 0 mm 7 mps 692 mmHg 41%
    23:00 +34°C° 0 mm 8 mps 693 mmHg 40%
    Show more